Main page
Satellite images Climate Cyclones Lightning AirportsFAQ Languages Contact Newsletter About
Weather : Europe Africa North America South America Asia Australia-Oceania Others

, Da Nang, Da Nang International Airport

latitude: , longitude: Vietnam, elevation: 16-02N m


METAR: VVDN 221030Z 36007KT 4000 -RA BR FEW008 SCT012 BKN050 24/23 Q1012 TEMPO 2500 RA BR